Total_Precipitation_Accumulation
0.03 0.03 0.06 0.05 0.04 0.03 0.05 0.06 0.06 0.07 0.06 0.05 0.04 0.03 0.01 0.01 0.01 0.02 0.02 0.02 0.02 0.03 0.03 0.04 0.05 0.06 0.06 0.06 0.06 0.04 0.04 0.04 0.07 0.08 0.11 0.13 0.17 0.25 0.32 0.31 0.44 0.38 0.20
0.01 0.03 0.07 0.07 0.05 0.05 0.06 0.06 0.07 0.08 0.08 0.08 0.07 0.05 0.02 0.02 0.02 0.02 0.02 0.02 0.02 0.03 0.03 0.03 0.03 0.03 0.03 0.03 0.03 0.03 0.04 0.06 0.10 0.16 0.21 0.21 0.24 0.32 0.32 0.26 0.43 0.31 0.16
0.01 0.02 0.05 0.08 0.06 0.05 0.05 0.06 0.07 0.08 0.10 0.09 0.07 0.06 0.04 0.02 0.02 0.02 0.02 0.02 0.02 0.03 0.03 0.03 0.02 0.02 0.02 0.02 0.02 0.03 0.04 0.08 0.14 0.24 0.40 0.40 0.21 0.28 0.29 0.24 0.25 0.16 0.13
0.01 0.02 0.03 0.07 0.07 0.05 0.04 0.06 0.07 0.08 0.09 0.08 0.07 0.06 0.05 0.04 0.03 0.02 0.02 0.02 0.03 0.04 0.03 0.02 0.02 0.02 0.02 0.02 0.02 0.03 0.06 0.10 0.16 0.29 0.57 0.40 0.17 0.15 0.19 0.17 0.14 0.10 0.09
0.03 0.02 0.03 0.05 0.06 0.06 0.05 0.05 0.06 0.07 0.08 0.07 0.07 0.05 0.04 0.05 0.05 0.03 0.02 0.03 0.04 0.04 0.03 0.02 0.02 0.01 0.01 0.01 0.02 0.04 0.07 0.12 0.20 0.33 0.38 0.35 0.38 0.19 0.13 0.14 0.13 0.10 0.07
0.04 0.03 0.04 0.06 0.06 0.06 0.05 0.05 0.05 0.06 0.06 0.06 0.05 0.05 0.04 0.05 0.05 0.05 0.04 0.04 0.04 0.05 0.03 0.02 0.02 0.01 0.01 0.01 0.02 0.05 0.08 0.13 0.21 0.24 0.25 0.31 0.39 0.24 0.15 0.19 0.19 0.13 0.09
0.03 0.03 0.04 0.07 0.08 0.07 0.06 0.06 0.06 0.06 0.06 0.06 0.06 0.05 0.05 0.06 0.07 0.06 0.05 0.04 0.05 0.05 0.05 0.03 0.02 0.02 0.02 0.02 0.03 0.06 0.10 0.16 0.21 0.22 0.27 0.41 0.44 0.28 0.26 0.42 0.46 0.32 0.18
0.04 0.04 0.05 0.08 0.09 0.09 0.08 0.08 0.08 0.08 0.08 0.07 0.06 0.06 0.06 0.07 0.08 0.07 0.07 0.06 0.08 0.09 0.08 0.05 0.03 0.03 0.03 0.03 0.04 0.06 0.12 0.14 0.16 0.22 0.28 0.41 0.38 0.35 0.47 0.69 0.71 0.56 0.40
0.07 0.08 0.08 0.07 0.08 0.10 0.12 0.12 0.11 0.10 0.10 0.09 0.08 0.08 0.07 0.09 0.10 0.10 0.10 0.11 0.11 0.13 0.13 0.10 0.06 0.06 0.05 0.05 0.05 0.07 0.12 0.16 0.19 0.27 0.30 0.33 0.27 0.31 0.54 0.72 0.65 0.58 0.50
0.14 0.12 0.12 0.12 0.13 0.12 0.12 0.14 0.14 0.13 0.12 0.11 0.11 0.11 0.11 0.13 0.15 0.17 0.15 0.17 0.18 0.20 0.20 0.19 0.16 0.14 0.14 0.13 0.13 0.12 0.15 0.14 0.13 0.17 0.31 0.44 0.35 0.45 0.71 0.84 0.72 0.64 0.57
0.16 0.13 0.12 0.13 0.15 0.15 0.14 0.13 0.15 0.16 0.16 0.15 0.17 0.17 0.19 0.23 0.36 0.44 0.45 0.50 0.48 0.46 0.44 0.39 0.38 0.37 0.32 0.22 0.25 0.35 0.26 0.10 0.10 0.15 0.32 0.50 0.48 0.65 0.95 1.03 0.97 0.84 0.72
0.15 0.13 0.14 0.15 0.16 0.15 0.14 0.21 0.23 0.24 0.28 0.24 0.33 0.43 0.47 0.54 0.55 0.47 0.70 0.84 0.86 0.92 0.85 0.79 0.94 0.80 0.58 0.46 0.79 1.14 0.45 0.20 0.16 0.19 0.31 0.47 0.72 1.01 1.26 1.19 1.08 0.99 0.87
0.21 0.15 0.18 0.21 0.22 0.22 0.27 0.27 0.31 0.37 0.51 0.47 0.49 0.65 0.82 0.80 0.67 0.57 0.71 0.98 1.17 1.32 1.27 1.37 1.49 1.09 1.02 1.08 1.21 1.21 0.73 0.52 0.38 0.40 0.53 0.78 1.14 1.43 1.57 1.37 1.23 1.15 1.04
0.43 0.37 0.37 0.38 0.43 0.43 0.46 0.48 0.47 0.54 0.70 0.78 0.94 1.02 1.19 1.21 1.06 0.92 0.93 1.05 1.27 1.46 1.80 1.84 1.71 1.60 1.56 1.46 1.37 1.19 1.01 0.97 0.76 0.80 1.02 1.15 1.33 1.53 1.74 1.64 1.43 1.33 1.26
0.74 0.83 0.82 0.72 0.80 0.89 0.92 0.94 0.84 0.91 1.00 1.08 1.28 1.43 1.54 1.70 1.61 1.53 1.44 1.39 1.30 1.48 1.81 2.02 1.94 1.96 1.91 1.80 1.61 1.43 1.26 1.22 1.15 1.18 1.31 1.54 1.60 1.56 1.63 1.75 1.65 1.47 1.38
1.04 1.22 1.26 1.27 1.42 1.46 1.42 1.44 1.41 1.24 1.22 1.25 1.38 1.45 1.65 1.85 2.06 2.13 2.01 1.83 1.54 1.52 1.63 1.97 2.09 2.21 2.09 1.95 1.42 1.34 1.35 1.40 1.40 1.36 1.39 1.87 1.95 1.62 1.49 1.54 1.64 1.63 1.54
1.56 1.63 1.68 1.84 2.00 1.99 1.89 1.74 1.57 1.46 1.45 1.56 1.61 1.59 1.80 2.04 2.22 2.22 1.97 1.65 1.47 1.57 1.67 1.62 1.66 1.95 1.74 1.60 1.43 1.52 1.54 1.44 1.38 1.37 1.38 1.65 1.75 1.50 1.28 1.22 1.36 1.46 1.57
1.96 1.98 2.04 2.06 2.21 2.28 2.22 2.14 1.90 1.71 1.76 1.70 1.62 1.59 1.70 1.91 1.93 1.94 1.58 1.22 1.31 1.53 1.60 1.56 1.51 1.61 1.59 1.62 1.60 1.58 1.54 1.41 1.20 1.14 1.04 0.99 1.09 0.98 1.07 1.24 1.21 1.17 1.37
2.31 2.52 2.64 2.70 2.58 2.57 2.50 2.42 2.23 2.02 1.80 1.59 1.58 1.53 1.45 1.39 1.42 1.49 1.20 1.08 1.23 1.37 1.40 1.37 1.49 1.59 1.47 1.53 1.56 1.46 1.20 1.06 0.92 0.81 0.77 0.69 0.71 0.73 0.72 0.93 1.03 1.08 1.31
2.47 2.87 3.11 3.10 2.85 2.54 2.26 1.97 1.88 1.76 1.66 1.54 1.47 1.36 1.20 1.10 1.11 1.28 1.16 1.07 1.19 1.27 1.22 1.36 1.47 1.56 1.35 1.32 1.27 1.02 0.84 0.63 0.59 0.53 0.45 0.48 0.50 0.49 0.55 0.68 0.92 0.86 1.16
2.48 2.90 3.06 3.00 2.49 1.98 1.73 1.53 1.43 1.30 1.23 1.28 1.28 1.21 1.16 1.07 1.05 1.19 1.09 1.01 1.01 1.02 0.99 1.13 1.26 1.27 1.05 1.26 1.40 0.93 0.64 0.50 0.43 0.33 0.30 0.33 0.35 0.41 0.54 0.71 0.86 0.89 1.01
2.26 2.72 2.73 2.26 1.75 1.42 1.24 1.11 1.00 0.98 0.94 0.91 0.86 0.83 0.81 0.83 0.87 0.95 0.93 0.84 0.80 0.83 0.82 0.90 1.03 1.03 0.91 1.19 1.33 1.19 0.84 0.62 0.49 0.35 0.34 0.34 0.37 0.47 0.53 0.61 0.85 1.02 1.05
1.97 1.97 1.63 1.32 1.04 0.82 0.70 0.65 0.67 0.65 0.62 0.55 0.49 0.48 0.53 0.58 0.60 0.59 0.60 0.65 0.69 0.70 0.71 0.78 0.93 1.05 0.92 0.95 1.18 1.30 1.03 0.72 0.63 0.49 0.48 0.53 0.56 0.63 0.69 0.82 0.93 1.04 1.12
1.34 1.17 0.97 0.83 0.69 0.61 0.59 0.54 0.59 0.53 0.47 0.42 0.36 0.37 0.41 0.43 0.42 0.41 0.44 0.54 0.61 0.66 0.71 0.66 0.71 0.87 0.92 0.84 0.94 1.05 1.07 1.08 1.00 0.72 0.55 0.53 0.60 0.62 0.65 0.70 0.80 0.93 1.00
0.75 0.70 0.58 0.63 0.68 0.62 0.58 0.51 0.48 0.41 0.35 0.31 0.33 0.37 0.42 0.43 0.42 0.38 0.37 0.39 0.49 0.58 0.64 0.66 0.68 0.74 0.81 0.79 0.80 0.85 0.93 1.03 1.02 0.94 0.69 0.53 0.55 0.54 0.61 0.67 0.74 0.80 0.88
0.34 0.35 0.35 0.42 0.50 0.47 0.46 0.43 0.42 0.39 0.36 0.32 0.31 0.33 0.34 0.37 0.39 0.38 0.38 0.40 0.42 0.43 0.47 0.54 0.60 0.66 0.71 0.74 0.74 0.81 0.89 0.88 0.88 0.99 0.86 0.70 0.64 0.58 0.67 0.74 0.85 0.94 0.95